STARLINK-11159, 60905

Orbit data source: Space-Track

STARLINK-11159, 60905 is a payload satellite owned by SpaceX/Seattle (US) in LEO that was launched on Sat, 31 Aug 2024 UTC via an FALCON 9 launch vehicle from the Air Force Eastern Test Range (AFETR). Payload-class satellites include a variety of spacecraft equipped with specific instruments for various scientific and technological missions. These include communications satellites like Starlink; space stations such as the ISS; scientific satellites like the Hubble; Earth observation satellites from companies like Planet Labs, Umbra, and HawkEye 360; GPS; miniature CubeSats for education and research; and military/defense satellites.

Loading next visibility...
Identifier
60905, 2024-154C
Orbit
LEO
Country
Flag of USUS
Related business
Manufacturer
SpaceX/Seattle
Mission
Operational Commercial Communications
Bus & Motor
STARLINK V2MD, Unknown motor
Mass
960 kg wet, ~910 kg dry
Launch date (UTC)
2024-08-31 (2 years ago)
Launch vehicle
FALCON 9
Launch site
Air Force Eastern Test Range (AFETR)
Object type
Payload
Rocket body
Debris
Shape & HBR
Box + 2 Pan, 18.1 m
Radar Cross Section
36.964 m², Large (>1 m²)

Expand to show TLE details & history
Last TLE update: 15 hours ago

TLE from 15 hours ago
0 STARLINK-11159
1 60905U 24154C   26129.89795168 -.00001299  00000-0 -58697-5 0  9992
2 60905  53.1587 189.8363 0000858 124.7670 235.3428 15.69701041 98128
Epoch: 2026-05-09T21:33Z
TLE epoch observation values (Epoch: 2026-05-09T21:33:03.025Z)
Latitude
-0.00006°
Longitude
-1.13514°
Altitude
360.996 km
Speed
7.694 km/s
True Right ascension
12h 39m 20s
True Declination
0° 00' 00"
Sunlit
Object was in full shadow at epoch
Visualization orbit readout
Latitude
Unknown
Longitude
Unknown
Altitude
Unknown
Speed
Unknown
Apparent Right ascension
Unknown
Apparent Declination
Unknown
Sunlit
N/A
Visualization observer readout
Local Sidereal Time
20:39:17
Azimuth
Unknown
Elevation
Unknown
Doppler factor
Unknown
Orbital elements
Apogee altitude
360.591 km
Perigee altitude
359.435 km
Semi-major axis
6,738.15 km
Eccentricity
0.00009
Inclination
53.1587°
RAAN
189.8363°
Arg. of periapsis
124.767°
True anomaly
235.33471°
Mean anomaly
235.3428°
Eccentric anomaly
235.33876°
Mean motion
3.92403 °/min
Orbital period
91.74 mins
BSTAR
-0.0000058697
Loading maneuver chart data...
Computing Atmospheric mass density...
Loading historical data...
Loading historical data...
Loading historical data...
Loading historical data...
Loading historical data...
Loading historical data...
Loading historical data...

Documentation

Showing up to 5 results
|